﻿_id,日時,平均風速(m/s),平均風向,最大瞬間風速(m/s),最大風速時風向,気温(℃),湿度(%),10分間移動積算雨量(mm),1時間移動積算雨量(mm),日雨量(mm),累計雨量(mm)
1,2022-09-19T00:00:00,3,東,7.9,東北東,29.3,61.6,0,0,0,0
2,2022-09-19T00:01:00,3.3,東,9.1,東南東,29.3,61.6,0,0,0,0
3,2022-09-19T00:02:00,3.3,東南東,9.1,東南東,29.4,61.4,0,0,0,0
4,2022-09-19T00:03:00,3.3,東,9.1,東南東,29.4,61.4,0,0,0,0
5,2022-09-19T00:04:00,3.5,東,9.1,東南東,29.4,61.2,0,0,0,0
6,2022-09-19T00:05:00,3.7,東,9.1,東南東,29.4,61.2,0,0,0,0
7,2022-09-19T00:06:00,3.5,東,9.1,東南東,29.4,61.1,0,0,0,0
8,2022-09-19T00:07:00,3.3,東,9.1,東南東,29.4,61.2,0,0,0,0
9,2022-09-19T00:08:00,3.3,東南東,9.1,東南東,29.3,61.3,0,0,0,0
10,2022-09-19T00:09:00,3.3,東南東,9.1,東南東,29.4,61.4,0,0,0,0
11,2022-09-19T00:10:00,3.2,東,9.1,東南東,29.4,61.3,0,0,0,0
12,2022-09-19T00:11:00,2.9,東南東,8.8,東南東,29.3,61.4,0,0,0,0
13,2022-09-19T00:12:00,2.7,東南東,8.8,東南東,29.4,61.3,0,0,0,0
14,2022-09-19T00:13:00,2.5,東,8.8,東南東,29.4,61.2,0,0,0,0
15,2022-09-19T00:14:00,2.2,東,5,東南東,29.4,61.3,0,0,0,0
16,2022-09-19T00:15:00,2.5,東南東,12,東,29.4,61.3,0,0,0,0
17,2022-09-19T00:16:00,2.9,東南東,12,東,29.4,61.3,0,0,0,0
18,2022-09-19T00:17:00,2.9,東南東,12,東,29.5,61.1,0,0,0,0
19,2022-09-19T00:18:00,2.9,東南東,12,東,29.4,61.1,0,0,0,0
20,2022-09-19T00:19:00,2.8,東南東,12,東,29.4,61.2,0,0,0,0
21,2022-09-19T00:20:00,2.8,東南東,12,東,29.3,61.3,0,0,0,0
22,2022-09-19T00:21:00,2.8,東南東,12,東,29.3,61.4,0,0,0,0
23,2022-09-19T00:22:00,2.9,東南東,12,東,29.3,61.5,0,0,0,0
24,2022-09-19T00:23:00,3.1,東南東,12,東,29.4,61.5,0,0,0,0
25,2022-09-19T00:24:00,3.3,南東,12,東,29.4,61.5,0,0,0,0
26,2022-09-19T00:25:00,3,南東,7.3,東,29.4,61.5,0,0,0,0
27,2022-09-19T00:26:00,2.6,東南東,7.2,南東,29.3,61.5,0,0,0,0
28,2022-09-19T00:27:00,2.6,東南東,7.2,南東,29.2,61.7,0,0,0,0
29,2022-09-19T00:28:00,2.7,東南東,7.2,南東,29.3,61.7,0,0,0,0
30,2022-09-19T00:29:00,2.9,東南東,7.2,南東,29.4,61.4,0,0,0,0
31,2022-09-19T00:30:00,3,東南東,7.2,南東,29.3,61.4,0,0,0,0
32,2022-09-19T00:31:00,3,東南東,7.2,南東,29.3,61.5,0,0,0,0
33,2022-09-19T00:32:00,3.2,東南東,9.1,南東,29.2,61.7,0,0,0,0
34,2022-09-19T00:33:00,3.1,東南東,9.1,南東,29.2,61.7,0,0,0,0
35,2022-09-19T00:34:00,2.9,東南東,9.1,南東,29.2,61.8,0,0,0,0
36,2022-09-19T00:35:00,2.8,東南東,9.1,南東,29.2,61.7,0,0,0,0
37,2022-09-19T00:36:00,2.8,東南東,9.1,南東,29.2,61.8,0,0,0,0
38,2022-09-19T00:37:00,2.7,東南東,9.1,南東,29.2,61.9,0,0,0,0
39,2022-09-19T00:38:00,2.7,東南東,9.1,南東,29.2,61.8,0,0,0,0
40,2022-09-19T00:39:00,2.5,東南東,9.1,南東,29.2,61.8,0,0,0,0
41,2022-09-19T00:40:00,2.5,東南東,9.1,南東,29.3,61.7,0,0,0,0
42,2022-09-19T00:41:00,2.6,東南東,9.1,南東,29.2,61.7,0,0,0,0
43,2022-09-19T00:42:00,2.4,南東,7.5,北東,29.2,61.7,0,0,0,0
44,2022-09-19T00:43:00,2.7,東南東,8.4,南東,29.2,61.8,0,0,0,0
45,2022-09-19T00:44:00,3,東南東,8.4,南東,29.3,61.6,0,0,0,0
46,2022-09-19T00:45:00,3.2,東南東,8.4,南東,29.3,61.5,0,0,0,0
47,2022-09-19T00:46:00,3.5,東南東,10.8,東北東,29.3,61.5,0,0,0,0
48,2022-09-19T00:47:00,3.6,東南東,10.8,東北東,29.3,61.5,0,0,0,0
49,2022-09-19T00:48:00,3.7,東南東,10.8,東北東,29.2,61.6,0,0,0,0
50,2022-09-19T00:49:00,3.8,東南東,10.8,東北東,29.3,61.7,0,0,0,0
51,2022-09-19T00:50:00,3.8,東南東,10.8,東北東,29.3,61.6,0,0,0,0
52,2022-09-19T00:51:00,3.8,東南東,10.8,東北東,29.3,61.7,0,0,0,0
53,2022-09-19T00:52:00,4.1,東南東,10.8,東北東,29.3,61.8,0,0,0,0
54,2022-09-19T00:53:00,4,東南東,10.8,東北東,29.3,61.8,0,0,0,0
55,2022-09-19T00:54:00,3.6,東南東,10.8,東北東,29.3,61.8,0,0,0,0
56,2022-09-19T00:55:00,3.6,東南東,10.8,東北東,29.2,62,0,0,0,0
57,2022-09-19T00:56:00,3.4,東南東,8.7,東南東,29.2,62.4,0,0,0,0
58,2022-09-19T00:57:00,3.2,東南東,8.7,東南東,29.1,62.7,0,0,0,0
59,2022-09-19T00:58:00,3.2,東南東,8.7,東南東,29.1,63.1,0,0,0,0
60,2022-09-19T00:59:00,3.2,東南東,8.7,東南東,29,63.2,0,0,0,0
61,2022-09-19T01:00:00,3.3,東南東,8.7,東南東,29.1,63.2,0,0,0,0
62,2022-09-19T01:01:00,3.4,東南東,8.7,東南東,29,63.3,0,0,0,0
63,2022-09-19T01:02:00,3.1,東南東,8.3,南南東,29,63.3,0,0,0,0
64,2022-09-19T01:03:00,2.9,東南東,7.8,南東,29,63.5,0,0,0,0
65,2022-09-19T01:04:00,3.1,東南東,7.8,南東,28.9,63.7,0,0,0,0
66,2022-09-19T01:05:00,3.1,東南東,7.8,南東,28.9,63.8,0,0,0,0
67,2022-09-19T01:06:00,3.4,東南東,10.3,東南東,29,63.9,0,0,0,0
68,2022-09-19T01:07:00,3.8,東南東,10.3,東南東,29.1,63.7,0,0,0,0
69,2022-09-19T01:08:00,3.7,東南東,10.3,東南東,29,63.7,0,0,0,0
70,2022-09-19T01:09:00,3.6,東南東,10.3,東南東,29,63.8,0,0,0,0
71,2022-09-19T01:10:00,3.6,東南東,10.3,東南東,29,64,0,0,0,0
72,2022-09-19T01:11:00,3.8,東南東,11.4,東南東,29,64.1,0,0,0,0
73,2022-09-19T01:12:00,3.9,東南東,11.4,東南東,28.9,64.2,0,0,0,0
74,2022-09-19T01:13:00,4,東南東,11.4,東南東,28.9,64.5,0,0,0,0
75,2022-09-19T01:14:00,4,東南東,11.4,東南東,28.8,64.8,0,0,0,0
76,2022-09-19T01:15:00,4,東南東,11.4,東南東,28.8,65,0,0,0,0
77,2022-09-19T01:16:00,3.8,東南東,11.4,東南東,28.6,66,0,0,0,0
78,2022-09-19T01:17:00,3.8,東南東,11.4,東南東,28.4,67.1,0,0,0,0
79,2022-09-19T01:18:00,4,東南東,11.4,東南東,28.3,67.9,0,0,0,0
80,2022-09-19T01:19:00,4.1,東南東,11.4,東南東,28.2,68.8,0,0,0,0
81,2022-09-19T01:20:00,4.1,東南東,11.4,東南東,28.1,68.8,0,0,0,0
82,2022-09-19T01:21:00,3.8,東南東,8,東南東,28.1,69.1,0,0,0,0
83,2022-09-19T01:22:00,3.6,東南東,8,東南東,28.1,69.6,0,0,0,0
84,2022-09-19T01:23:00,3.6,東南東,8,東南東,28.1,69.5,0,0,0,0
85,2022-09-19T01:24:00,3.7,東南東,8,東南東,28,69.9,0,0,0,0
86,2022-09-19T01:25:00,3.6,東南東,8,東南東,28.1,69.8,0,0,0,0
87,2022-09-19T01:26:00,3.4,南東,8,東南東,28,70.1,0,0,0,0
88,2022-09-19T01:27:00,3.2,南東,7.3,南東,28,70.4,0,0,0,0
89,2022-09-19T01:28:00,3.1,南東,6.1,東,28,70.3,0,0,0,0
90,2022-09-19T01:29:00,3,南東,6.1,東,28,70.4,0,0,0,0
91,2022-09-19T01:30:00,2.9,東南東,6.4,東,28.1,70.2,0,0,0,0
92,2022-09-19T01:31:00,3,東南東,7.3,東北東,28.1,70.2,0,0,0,0
93,2022-09-19T01:32:00,3,東南東,7.3,東北東,28.1,70.2,0,0,0,0
94,2022-09-19T01:33:00,3,東南東,7.3,東北東,28.1,70.2,0,0,0,0
95,2022-09-19T01:34:00,3,東南東,7.3,東北東,28.1,70.2,0,0,0,0
96,2022-09-19T01:35:00,3,東南東,7.3,東北東,28.1,70.3,0,0,0,0
97,2022-09-19T01:36:00,3,東南東,7.3,東北東,28.1,70.3,0,0,0,0
98,2022-09-19T01:37:00,3.2,東南東,7.3,東北東,28.1,70.3,0,0,0,0
99,2022-09-19T01:38:00,3.1,東南東,7.3,東北東,28.1,70.3,0,0,0,0
100,2022-09-19T01:39:00,3,東南東,7.3,東北東,28.1,70.4,0,0,0,0
101,2022-09-19T01:40:00,2.8,東南東,7.3,東北東,28.1,70.5,0,0,0,0
102,2022-09-19T01:41:00,2.7,東南東,7.1,東,28.1,70.6,0,0,0,0
103,2022-09-19T01:42:00,2.6,東南東,6.1,東,28,70.6,0,0,0,0
104,2022-09-19T01:43:00,2.6,南東,6.1,東,28.1,70.5,0,0,0,0
105,2022-09-19T01:44:00,2.4,南東,5.2,南東,28.1,70.6,0,0,0,0
106,2022-09-19T01:45:00,2.3,東南東,5,南東,28.1,70.5,0,0,0,0
107,2022-09-19T01:46:00,2.1,東南東,5,南東,28.1,70.6,0,0,0,0
108,2022-09-19T01:47:00,2,東南東,4.4,東,28,70.8,0,0,0,0
109,2022-09-19T01:48:00,2,東南東,5.2,東北東,28.1,70.9,0,0,0,0
110,2022-09-19T01:49:00,2,東南東,5.2,東北東,28.1,70.8,0,0,0,0
111,2022-09-19T01:50:00,2,東南東,5.2,東北東,28.1,70.7,0,0,0,0
112,2022-09-19T01:51:00,2,東南東,5.2,東北東,28.1,70.7,0,0,0,0
113,2022-09-19T01:52:00,2.1,東南東,5.8,東南東,28.1,70.7,0,0,0,0
114,2022-09-19T01:53:00,2,東南東,5.8,東南東,28.1,70.7,0,0,0,0
115,2022-09-19T01:54:00,1.9,東南東,5.8,東南東,28.1,70.7,0,0,0,0
116,2022-09-19T01:55:00,2,東,5.8,東南東,28.1,70.8,0,0,0,0
117,2022-09-19T01:56:00,2.1,東,5.8,東南東,28.2,70.6,0,0,0,0
118,2022-09-19T01:57:00,2,東南東,5.8,東南東,28.2,70.5,0,0,0,0
119,2022-09-19T01:58:00,1.9,東南東,5.8,東南東,28.1,70.6,0,0,0,0
120,2022-09-19T01:59:00,2.2,東南東,7.4,南東,28.2,70.6,0,0,0,0
121,2022-09-19T02:00:00,2.4,東南東,7.4,南東,28.3,70.5,0,0,0,0
122,2022-09-19T02:01:00,2.6,東南東,7.4,南東,28.3,70.3,0,0,0,0
123,2022-09-19T02:02:00,2.6,東南東,7.4,南東,28.4,70.2,0,0,0,0
124,2022-09-19T02:03:00,2.7,東南東,7.4,南東,28.4,70.1,0,0,0,0
125,2022-09-19T02:04:00,2.9,東,7.4,南東,28.4,70,0,0,0,0
126,2022-09-19T02:05:00,3,東南東,7.4,南東,28.4,70,0,0,0,0
127,2022-09-19T02:06:00,3.2,東南東,7.9,東北東,28.4,70.3,0,0,0,0
128,2022-09-19T02:07:00,3.4,東南東,7.9,東北東,28.3,70.9,0,0,0,0
129,2022-09-19T02:08:00,3.5,東南東,7.9,東北東,28.2,71.1,0,0,0,0
130,2022-09-19T02:09:00,3.3,東,7.9,東北東,28.2,71.2,0,0,0,0
131,2022-09-19T02:10:00,3.2,東,7.9,東北東,28.2,71.3,0,0,0,0
132,2022-09-19T02:11:00,3.1,東,7.9,東北東,28.1,71.6,0,0,0,0
133,2022-09-19T02:12:00,3,東南東,7.9,東北東,28.1,71.8,0,0,0,0
134,2022-09-19T02:13:00,2.9,東南東,7.9,東北東,28.1,72.1,0,0,0,0
135,2022-09-19T02:14:00,2.8,東,7.9,東北東,28,72.3,0,0,0,0
136,2022-09-19T02:15:00,2.6,東,7.9,東北東,28.1,72.4,0,0,0,0
137,2022-09-19T02:16:00,2.4,東南東,5.6,北東,28.1,72.2,0,0,0,0
138,2022-09-19T02:17:00,2.3,東南東,5.6,北東,28.2,71.9,0,0,0,0
139,2022-09-19T02:18:00,2.3,東南東,5.9,南東,28.3,71.8,0,0,0,0
140,2022-09-19T02:19:00,2.2,東南東,5.9,南東,28.2,71.6,0,0,0,0
141,2022-09-19T02:20:00,2.2,東南東,5.9,南東,28.1,72,0,0,0,0
142,2022-09-19T02:21:00,2,東南東,5.9,南東,28.1,72.3,0,0,0,0
143,2022-09-19T02:22:00,2,東,5.9,南東,28.1,72.3,0,0,0,0
144,2022-09-19T02:23:00,2,東,5.9,南東,28,72.6,0,0,0,0
145,2022-09-19T02:24:00,2,東南東,5.9,南東,27.9,73.1,0,0,0,0
146,2022-09-19T02:25:00,2,東南東,5.9,南東,28,72.9,0,0,0,0
147,2022-09-19T02:26:00,1.9,東南東,5.9,南東,28,72.8,0,0,0,0
148,2022-09-19T02:27:00,1.9,東南東,5.9,南東,27.9,73.2,0,0,0,0
149,2022-09-19T02:28:00,1.7,東南東,4.3,東,28,73.2,0,0,0,0
150,2022-09-19T02:29:00,1.7,東南東,3.7,南東,28.1,72.9,0,0,0,0
151,2022-09-19T02:30:00,1.7,東南東,3.7,南東,28.1,72.7,0,0,0,0
152,2022-09-19T02:31:00,1.6,東南東,3.7,南東,28.1,72.6,0,0,0,0
153,2022-09-19T02:32:00,1.7,東,3.7,南東,28.1,72.7,0,0,0,0
154,2022-09-19T02:33:00,1.7,東,3.7,南東,28.1,72.7,0,0,0,0
155,2022-09-19T02:34:00,1.7,東,6.6,北東,28.2,72.6,0,0,0,0
156,2022-09-19T02:35:00,1.8,東,6.6,北東,28.2,72.3,0,0,0,0
157,2022-09-19T02:36:00,1.8,東,6.6,北東,28.3,71.9,0,0,0,0
158,2022-09-19T02:37:00,1.8,東,6.6,北東,28.2,72,0,0,0,0
159,2022-09-19T02:38:00,1.9,東,6.6,北東,28.2,72.3,0,0,0,0
160,2022-09-19T02:39:00,2,東,6.6,北東,28.2,72.1,0,0,0,0
161,2022-09-19T02:40:00,2.1,東,6.6,北東,28.1,72.3,0,0,0,0
162,2022-09-19T02:41:00,2.4,東,6.6,北東,28.1,72.7,0,0,0,0
163,2022-09-19T02:42:00,2.5,東,6.6,北東,28,72.9,0,0,0,0
164,2022-09-19T02:43:00,2.6,東,6.6,北東,28,73.1,0,0,0,0
165,2022-09-19T02:44:00,2.6,東,5.5,東北東,28.1,73.3,0,0,0,0
166,2022-09-19T02:45:00,2.7,東,5.5,東北東,28.1,73.3,0,0,0,0
167,2022-09-19T02:46:00,2.8,東,5.5,東北東,28.1,73.1,0,0,0,0
168,2022-09-19T02:47:00,2.9,東,5.5,東北東,28.1,73.3,0,0,0,0
169,2022-09-19T02:48:00,3,東,6.5,北北東,28.2,73,0,0,0,0
170,2022-09-19T02:49:00,3.2,東,6.8,北北東,28.2,72.8,0,0,0,0
171,2022-09-19T02:50:00,3.3,東,6.8,北北東,28.3,72.5,0,0,0,0
172,2022-09-19T02:51:00,3.3,東,6.8,北北東,28.3,72.4,0,0,0,0
173,2022-09-19T02:52:00,3.4,東,6.8,北北東,28.3,72.5,0,0,0,0
174,2022-09-19T02:53:00,3.4,東,6.8,北北東,28.3,72.4,0,0,0,0
175,2022-09-19T02:54:00,3.8,東,8.7,南東,28.4,72.4,0,0,0,0
176,2022-09-19T02:55:00,3.8,東,8.7,南東,28.3,72.3,0,0,0,0
177,2022-09-19T02:56:00,3.7,東,8.7,南東,28.2,72.4,0,0,0,0
178,2022-09-19T02:57:00,3.6,東,8.7,南東,28.2,72.6,0,0,0,0
179,2022-09-19T02:58:00,3.4,東,8.7,南東,28.1,72.8,0,0,0,0
180,2022-09-19T02:59:00,3.3,東,8.7,南東,28.1,72.9,0,0,0,0
181,2022-09-19T03:00:00,3.1,東,8.7,南東,28.2,73,0,0,0,0
182,2022-09-19T03:01:00,3.2,東,8.7,南東,28.2,73.1,0,0,0,0
183,2022-09-19T03:02:00,2.9,東,8.7,南東,28.3,73,0,0,0,0
184,2022-09-19T03:03:00,3.1,東南東,8.7,南東,28.3,72.9,0,0,0,0
185,2022-09-19T03:04:00,2.6,東,7.2,南東,28.2,72.9,0,0,0,0
186,2022-09-19T03:05:00,2.5,東南東,7.2,南東,28.2,73,0,0,0,0
187,2022-09-19T03:06:00,2.5,東南東,7.2,南東,28.3,73.1,0,0,0,0
188,2022-09-19T03:07:00,2.5,東南東,7.2,南東,28.3,72.9,0,0,0,0
189,2022-09-19T03:08:00,2.5,東,7.2,南東,28.2,72.9,0,0,0,0
190,2022-09-19T03:09:00,2.6,東南東,7.2,南東,28.2,73.2,0,0,0,0
191,2022-09-19T03:10:00,2.6,東南東,7.2,南東,28.2,73.6,0,0,0,0
192,2022-09-19T03:11:00,2.5,東,7.2,南東,28.1,74.2,0,0,0,0
193,2022-09-19T03:12:00,2.5,東,7.2,南東,28,74.5,0,0,0,0
194,2022-09-19T03:13:00,2.2,東,5.9,南東,27.9,74.9,0,0,0,0
195,2022-09-19T03:14:00,2.2,東,5.9,南東,27.8,75.4,0,0,0,0
196,2022-09-19T03:15:00,2.2,東,5.9,南東,27.8,76.2,0,0,0,0
197,2022-09-19T03:16:00,2.2,東,5.9,南東,27.7,76.2,0,0,0,0
198,2022-09-19T03:17:00,2.2,東,5.9,南東,27.7,76.6,0,0,0,0
199,2022-09-19T03:18:00,2.2,東,5.9,南東,27.8,76.4,0,0,0,0
200,2022-09-19T03:19:00,2.1,東,5.9,南東,27.8,76.3,0,0,0,0
201,2022-09-19T03:20:00,2,東,4.8,東南東,27.8,76.2,0,0,0,0
202,2022-09-19T03:21:00,1.9,東,4.8,東南東,27.9,75.9,0,0,0,0
203,2022-09-19T03:22:00,1.8,東,4.8,東南東,27.9,75.8,0,0,0,0
204,2022-09-19T03:23:00,1.8,東,4.8,東南東,27.8,76.2,0,0,0,0
205,2022-09-19T03:24:00,1.9,東,5,北東,27.8,76.3,0,0,0,0
206,2022-09-19T03:25:00,2.1,東,5,北東,27.9,76.3,0,0,0,0
207,2022-09-19T03:26:00,2.2,東,5.3,北東,27.9,76.1,0,0,0,0
208,2022-09-19T03:27:00,2.1,東,5.3,北東,27.8,76.1,0,0,0,0
209,2022-09-19T03:28:00,2.1,東,5.3,北東,27.8,76.4,0,0,0,0
210,2022-09-19T03:29:00,2.1,東,5.3,北東,27.7,76.7,0,0,0,0
211,2022-09-19T03:30:00,2.2,東,5.3,北東,27.6,77,0,0,0,0
212,2022-09-19T03:31:00,2.4,東,5.3,北東,27.6,77.3,0,0,0,0
213,2022-09-19T03:32:00,2.3,東,5.3,北東,27.5,77.7,0,0,0,0
214,2022-09-19T03:33:00,2.3,東,5.3,北東,27.6,77.9,0,0,0,0
215,2022-09-19T03:34:00,2.2,東,5.3,北東,27.6,77.8,0,0,0,0
216,2022-09-19T03:35:00,2,東,5.3,北東,27.6,77.6,0,0,0,0
217,2022-09-19T03:36:00,1.9,東,3.9,東北東,27.7,77.3,0,0,0,0
218,2022-09-19T03:37:00,1.9,東,4.3,東南東,27.7,77.2,0,0,0,0
219,2022-09-19T03:38:00,2,東,4.7,東南東,27.8,77,0,0,0,0
220,2022-09-19T03:39:00,2.1,東,5,東南東,27.8,76.9,0,0,0,0
221,2022-09-19T03:40:00,2,東,5,東南東,27.8,76.9,0,0,0,0
222,2022-09-19T03:41:00,2.1,東,5,東南東,27.8,77,0,0,0,0
223,2022-09-19T03:42:00,2.2,東,5,東南東,27.8,76.8,0,0,0,0
224,2022-09-19T03:43:00,2.3,東,5,東南東,27.8,76.7,0,0,0,0
225,2022-09-19T03:44:00,2.4,東,5,東南東,27.8,76.8,0,0,0,0
226,2022-09-19T03:45:00,2.4,東南東,5,東南東,27.8,76.8,0,0,0,0
227,2022-09-19T03:46:00,2.5,東南東,5,東南東,27.8,76.8,0,0,0,0
228,2022-09-19T03:47:00,2.4,東南東,5,東南東,27.8,76.7,0,0,0,0
229,2022-09-19T03:48:00,2.2,東,5,東南東,27.8,76.6,0,0,0,0
230,2022-09-19T03:49:00,2.2,東南東,4.6,東南東,27.8,76.6,0,0,0,0
231,2022-09-19T03:50:00,2.2,東,4.6,東南東,27.7,76.9,0,0,0,0
232,2022-09-19T03:51:00,2.3,東,4.8,東,27.8,77,0,0,0,0
233,2022-09-19T03:52:00,2.3,東,4.8,東,27.8,76.7,0,0,0,0
234,2022-09-19T03:53:00,2.3,東,6.3,北東,27.9,76.6,0,0,0,0
235,2022-09-19T03:54:00,2.4,東,6.3,北東,27.8,76.5,0,0,0,0
236,2022-09-19T03:55:00,2.6,東,6.3,北東,27.9,76.3,0,0,0,0
237,2022-09-19T03:56:00,2.7,東,6.3,北東,28,76,0,0,0,0
238,2022-09-19T03:57:00,2.9,東,6.3,北東,28,75.8,0,0,0,0
239,2022-09-19T03:58:00,3,東,6.7,東南東,28,75.8,0,0,0,0
240,2022-09-19T03:59:00,3.1,東,7.2,南東,28,75.7,0,0,0,0
241,2022-09-19T04:00:00,3.1,東,7.2,南東,27.9,75.8,0,0,0,0
242,2022-09-19T04:01:00,2.9,東,7.2,南東,27.9,75.8,0,0,0,0
243,2022-09-19T04:02:00,2.9,東,7.2,南東,27.9,75.9,0,0,0,0
244,2022-09-19T04:03:00,2.8,東,7.2,南東,27.9,75.8,0,0,0,0
245,2022-09-19T04:04:00,2.7,東,7.2,南東,28,75.5,0,0,0,0
246,2022-09-19T04:05:00,2.6,東,7.2,南東,28,75.4,0,0,0,0
247,2022-09-19T04:06:00,2.6,東,7.2,南東,28,75.3,0,0,0,0
248,2022-09-19T04:07:00,2.6,東南東,7.2,南東,28,75.4,0,0,0,0
249,2022-09-19T04:08:00,2.6,東南東,7.2,南東,28.1,75.2,0,0,0,0
250,2022-09-19T04:09:00,2.4,東南東,4.6,南南東,28,75,0,0,0,0
